Time,TemperatureF,DewpointF,PressureIn,WindDirection,WindDirectionDegrees,WindSpeedMPH,WindSpeedGustMPH,Humidity,HourlyPrecipIn,Conditions,Clouds,dailyrainin,SoftwareType,DateUTC
2013-06-02 00:00:00,62.4,61.2,29.88,SE,143,6.0,10.0,96,0.00,,,0.00,VWS V14.01,2013-06-02 04:00:00,
2013-06-02 00:01:00,62.4,61.2,29.89,SSW,192,3.0,10.0,96,0.00,,,0.03,VWS V14.01,2013-06-02 04:01:00,
2013-06-02 00:06:00,62.4,61.2,29.89,SSE,165,7.0,8.0,96,0.00,,,0.00,VWS V14.01,2013-06-02 04:06:00,
2013-06-02 00:11:00,62.4,61.2,29.88,SE,125,5.0,8.0,96,0.00,,,0.00,VWS V14.01,2013-06-02 04:11:00,
2013-06-02 00:16:00,62.3,61.2,29.88,South,181,2.0,9.0,96,0.01,,,0.01,VWS V14.01,2013-06-02 04:16:00,
2013-06-02 00:21:00,62.3,61.2,29.88,South,190,3.0,11.0,96,0.01,,,0.01,VWS V14.01,2013-06-02 04:21:00,
2013-06-02 00:26:00,62.3,61.2,29.88,SSE,162,4.0,11.0,96,0.01,,,0.01,VWS V14.01,2013-06-02 04:26:00,
2013-06-02 00:30:00,62.2,61.0,29.88,SSW,197,2.0,11.0,96,0.01,,,0.01,VWS V14.01,2013-06-02 04:30:00,
2013-06-02 00:31:00,62.2,61.0,29.88,SSW,196,2.0,11.0,96,0.01,,,0.01,VWS V14.01,2013-06-02 04:31:00,
2013-06-02 00:36:00,62.1,61.2,29.88,SSE,159,4.0,6.0,97,0.01,,,0.01,VWS V14.01,2013-06-02 04:36:00,
2013-06-02 00:41:00,62.1,61.0,29.88,SW,227,0.0,10.0,96,0.01,,,0.01,VWS V14.01,2013-06-02 04:41:00,
2013-06-02 00:46:00,62.0,60.8,29.88,South,170,2.0,10.0,96,0.01,,,0.01,VWS V14.01,2013-06-02 04:46:00,
2013-06-02 00:51:00,62.0,60.8,29.88,SSW,203,1.0,10.0,96,0.01,,,0.01,VWS V14.01,2013-06-02 04:51:00,
2013-06-02 00:56:00,61.9,60.8,29.87,SE,132,3.0,10.0,96,0.01,,,0.01,VWS V14.01,2013-06-02 04:56:00,
2013-06-02 01:00:00,61.9,60.8,29.87,South,170,3.0,10.0,96,0.01,,,0.01,VWS V14.01,2013-06-02 05:00:00,
2013-06-02 01:01:00,61.9,60.8,29.87,SSW,195,3.0,10.0,96,0.01,,,0.01,VWS V14.01,2013-06-02 05:01:00,
2013-06-02 01:06:00,61.9,60.8,29.87,SSW,213,1.0,6.0,96,0.01,,,0.01,VWS V14.01,2013-06-02 05:06:00,
2013-06-02 01:11:00,61.9,60.8,29.87,SW,233,2.0,7.0,96,0.01,,,0.01,VWS V14.01,2013-06-02 05:11:00,
2013-06-02 01:16:00,61.9,60.8,29.87,South,184,1.0,7.0,96,0.01,,,0.01,VWS V14.01,2013-06-02 05:16:00,
2013-06-02 01:21:00,61.9,60.8,29.87,SSE,167,9.0,9.0,96,0.01,,,0.01,VWS V14.01,2013-06-02 05:21:00,
2013-06-02 01:26:00,61.9,60.8,29.87,SW,225,5.0,9.0,96,0.01,,,0.01,VWS V14.01,2013-06-02 05:26:00,
2013-06-02 01:30:00,61.9,60.8,29.87,SW,227,14.0,14.0,96,0.01,,,0.01,VWS V14.01,2013-06-02 05:30:00,
2013-06-02 01:31:00,61.9,60.8,29.87,SSE,163,2.0,10.0,96,0.01,,,0.01,VWS V14.01,2013-06-02 05:31:00,
2013-06-02 01:36:00,61.9,60.8,29.87,SE,128,1.0,14.0,96,0.00,,,0.01,VWS V14.01,2013-06-02 05:36:00,
2013-06-02 01:41:00,61.9,60.8,29.87,South,186,3.0,14.0,96,0.00,,,0.01,VWS V14.01,2013-06-02 05:41:00,
2013-06-02 01:46:00,62.0,60.8,29.87,South,184,2.0,14.0,96,0.00,,,0.01,VWS V14.01,2013-06-02 05:46:00,
2013-06-02 01:51:00,62.0,60.8,29.86,SSW,211,5.0,14.0,96,0.00,,,0.01,VWS V14.01,2013-06-02 05:51:00,
2013-06-02 01:56:00,62.1,61.0,29.86,SSW,210,2.0,14.0,96,0.00,,,0.01,VWS V14.01,2013-06-02 05:56:00,
2013-06-02 02:00:00,62.2,61.0,29.86,South,169,4.0,14.0,96,0.00,,,0.01,VWS V14.01,2013-06-02 06:00:00,
2013-06-02 02:01:00,62.1,61.0,29.86,SSE,167,6.0,14.0,96,0.00,,,0.01,VWS V14.01,2013-06-02 06:01:00,
2013-06-02 02:06:00,62.2,61.0,29.86,South,181,2.0,10.0,96,0.00,,,0.01,VWS V14.01,2013-06-02 06:06:00,
2013-06-02 02:11:00,62.2,61.0,29.86,SE,135,3.0,10.0,96,0.00,,,0.01,VWS V14.01,2013-06-02 06:11:00,
2013-06-02 02:16:00,62.2,61.0,29.86,SSW,209,1.0,10.0,96,0.00,,,0.01,VWS V14.01,2013-06-02 06:16:00,
2013-06-02 02:21:00,62.3,61.2,29.86,SE,139,1.0,10.0,96,0.00,,,0.01,VWS V14.01,2013-06-02 06:21:00,
2013-06-02 02:26:00,62.3,61.2,29.86,South,185,0.0,10.0,96,0.00,,,0.01,VWS V14.01,2013-06-02 06:26:00,
2013-06-02 02:30:00,62.4,61.2,29.85,SSE,164,3.0,10.0,96,0.00,,,0.01,VWS V14.01,2013-06-02 06:30:00,
2013-06-02 02:31:00,62.4,61.2,29.86,SSW,212,1.0,10.0,96,0.00,,,0.01,VWS V14.01,2013-06-02 06:31:00,
2013-06-02 02:36:00,62.4,61.2,29.86,SW,215,1.0,10.0,96,0.00,,,0.01,VWS V14.01,2013-06-02 06:36:00,
2013-06-02 02:41:00,62.5,61.3,29.85,South,178,3.0,10.0,96,0.00,,,0.01,VWS V14.01,2013-06-02 06:41:00,
2013-06-02 02:46:00,62.5,61.3,29.85,SSW,196,3.0,10.0,96,0.00,,,0.01,VWS V14.01,2013-06-02 06:46:00,
2013-06-02 02:51:00,62.5,61.3,29.85,SSE,162,5.0,10.0,96,0.00,,,0.01,VWS V14.01,2013-06-02 06:51:00,
2013-06-02 02:56:00,62.4,61.2,29.86,SSW,196,3.0,10.0,96,0.00,,,0.01,VWS V14.01,2013-06-02 06:56:00,
2013-06-02 03:00:00,62.4,61.2,29.85,SSW,207,2.0,10.0,96,0.00,,,0.01,VWS V14.01,2013-06-02 07:00:00,
2013-06-02 03:01:00,62.4,61.2,29.85,South,173,2.0,10.0,96,0.00,,,0.01,VWS V14.01,2013-06-02 07:01:00,
2013-06-02 03:06:00,62.3,61.2,29.85,South,173,4.0,11.0,96,0.00,,,0.01,VWS V14.01,2013-06-02 07:06:00,
2013-06-02 03:11:00,62.2,61.0,29.85,SW,223,3.0,11.0,96,0.00,,,0.01,VWS V14.01,2013-06-02 07:11:00,
2013-06-02 03:16:00,62.2,61.0,29.85,South,182,7.0,11.0,96,0.00,,,0.01,VWS V14.01,2013-06-02 07:16:00,
2013-06-02 03:21:00,62.2,61.0,29.85,SE,124,4.0,11.0,96,0.00,,,0.01,VWS V14.01,2013-06-02 07:21:00,
2013-06-02 03:26:00,62.1,61.0,29.85,South,175,3.0,11.0,96,0.00,,,0.01,VWS V14.01,2013-06-02 07:26:00,
2013-06-02 03:30:00,62.1,61.0,29.85,SW,222,5.0,11.0,96,0.00,,,0.01,VWS V14.01,2013-06-02 07:30:00,
2013-06-02 03:31:00,62.1,61.0,29.85,SE,146,4.0,11.0,96,0.00,,,0.01,VWS V14.01,2013-06-02 07:31:00,
2013-06-02 03:36:00,62.1,61.0,29.85,South,175,3.0,9.0,96,0.00,,,0.01,VWS V14.01,2013-06-02 07:36:00,
2013-06-02 03:41:00,62.0,60.8,29.85,South,173,3.0,9.0,96,0.00,,,0.01,VWS V14.01,2013-06-02 07:41:00,
2013-06-02 03:46:00,62.0,60.8,29.85,SSW,206,4.0,9.0,96,0.00,,,0.01,VWS V14.01,2013-06-02 07:46:00,
2013-06-02 03:51:00,62.0,60.8,29.85,South,182,3.0,11.0,96,0.00,,,0.01,VWS V14.01,2013-06-02 07:51:00,
2013-06-02 03:56:00,62.0,60.8,29.85,South,186,4.0,11.0,96,0.00,,,0.01,VWS V14.01,2013-06-02 07:56:00,
2013-06-02 04:00:00,62.1,61.0,29.85,SE,136,2.0,11.0,96,0.00,,,0.01,VWS V14.01,2013-06-02 08:00:00,
2013-06-02 04:01:00,62.1,61.0,29.85,SSW,196,7.0,11.0,96,0.00,,,0.01,VWS V14.01,2013-06-02 08:01:00,
2013-06-02 04:06:00,62.1,61.0,29.85,South,182,2.0,8.0,96,0.00,,,0.01,VWS V14.01,2013-06-02 08:06:00,
2013-06-02 04:11:00,62.1,61.0,29.85,SE,144,2.0,10.0,96,0.00,,,0.01,VWS V14.01,2013-06-02 08:11:00,
2013-06-02 04:16:00,62.1,61.0,29.85,South,177,4.0,10.0,96,0.00,,,0.01,VWS V14.01,2013-06-02 08:16:00,
2013-06-02 04:20:00,62.2,61.0,29.85,SW,227,4.0,10.0,96,0.00,,,0.01,VWS V14.01,2013-06-02 08:20:00,
2013-06-02 04:25:00,62.2,61.0,29.85,South,186,3.0,10.0,96,0.00,,,0.01,VWS V14.01,2013-06-02 08:25:00,
2013-06-02 04:30:00,62.2,61.0,29.85,WSW,241,4.0,10.0,96,0.00,,,0.01,VWS V14.01,2013-06-02 08:30:00,
2013-06-02 04:35:00,62.2,61.0,29.85,SW,232,0.0,9.0,96,0.00,,,0.01,VWS V14.01,2013-06-02 08:35:00,
2013-06-02 04:40:00,62.2,61.0,29.85,SW,227,4.0,9.0,96,0.00,,,0.01,VWS V14.01,2013-06-02 08:40:00,
2013-06-02 04:45:00,62.2,61.0,29.85,SW,232,1.0,14.0,96,0.00,,,0.01,VWS V14.01,2013-06-02 08:45:00,
2013-06-02 04:50:00,62.2,61.0,29.85,SE,131,1.0,14.0,96,0.00,,,0.01,VWS V14.01,2013-06-02 08:50:00,
2013-06-02 04:55:00,62.2,61.0,29.85,South,182,6.0,14.0,96,0.00,,,0.01,VWS V14.01,2013-06-02 08:55:00,
2013-06-02 05:00:00,62.2,61.0,29.85,SSE,164,3.0,14.0,96,0.00,,,0.01,VWS V14.01,2013-06-02 09:00:00,
2013-06-02 05:05:00,62.2,61.0,29.85,SSW,192,3.0,7.0,96,0.00,,,0.01,VWS V14.01,2013-06-02 09:05:00,
2013-06-02 05:10:00,62.2,61.0,29.85,SSW,200,5.0,10.0,96,0.00,,,0.01,VWS V14.01,2013-06-02 09:10:00,
2013-06-02 05:15:00,62.2,61.0,29.85,South,169,3.0,14.0,96,0.00,,,0.01,VWS V14.01,2013-06-02 09:15:00,
2013-06-02 05:20:00,62.2,61.0,29.85,SSE,167,1.0,14.0,96,0.00,,,0.01,VWS V14.01,2013-06-02 09:20:00,
2013-06-02 05:25:00,62.2,61.0,29.85,SW,217,3.0,14.0,96,0.00,,,0.01,VWS V14.01,2013-06-02 09:25:00,
2013-06-02 05:30:00,62.2,61.0,29.85,South,180,4.0,14.0,96,0.00,,,0.01,VWS V14.01,2013-06-02 09:30:00,
2013-06-02 05:35:00,62.2,61.0,29.86,WSW,249,4.0,6.0,96,0.00,,,0.01,VWS V14.01,2013-06-02 09:35:00,
2013-06-02 05:40:00,62.2,61.0,29.86,SE,126,6.0,9.0,96,0.00,,,0.01,VWS V14.01,2013-06-02 09:40:00,
2013-06-02 05:45:00,62.2,61.0,29.86,South,174,8.0,11.0,96,0.00,,,0.01,VWS V14.01,2013-06-02 09:45:00,
2013-06-02 05:50:00,62.2,61.0,29.85,SW,227,12.0,13.0,96,0.00,,,0.01,VWS V14.01,2013-06-02 09:50:00,
2013-06-02 05:55:00,62.3,61.2,29.85,South,179,4.0,13.0,96,0.00,,,0.01,VWS V14.01,2013-06-02 09:55:00,
2013-06-02 06:00:00,62.3,61.2,29.85,South,190,3.0,13.0,96,0.00,,,0.01,VWS V14.01,2013-06-02 10:00:00,
2013-06-02 06:05:00,62.4,61.2,29.85,SSW,192,4.0,7.0,96,0.00,,,0.01,VWS V14.01,2013-06-02 10:05:00,
2013-06-02 06:10:00,62.5,61.6,29.85,South,182,4.0,8.0,97,0.00,,,0.01,VWS V14.01,2013-06-02 10:10:00,
2013-06-02 06:15:00,62.5,61.6,29.85,South,174,1.0,10.0,97,0.00,,,0.01,VWS V14.01,2013-06-02 10:15:00,
2013-06-02 06:20:00,62.6,61.7,29.85,SSW,192,2.0,11.0,97,0.00,,,0.01,VWS V14.01,2013-06-02 10:20:00,
2013-06-02 06:25:00,62.6,61.7,29.85,ENE,75,2.0,11.0,97,0.00,,,0.01,VWS V14.01,2013-06-02 10:25:00,
2013-06-02 06:30:00,62.7,61.8,29.85,SW,217,4.0,11.0,97,0.00,,,0.01,VWS V14.01,2013-06-02 10:30:00,
2013-06-02 06:35:00,62.6,61.7,29.85,SSW,203,10.0,11.0,97,0.00,,,0.01,VWS V14.01,2013-06-02 10:35:00,
2013-06-02 06:40:00,62.6,61.7,29.85,SSW,198,6.0,11.0,97,0.00,,,0.01,VWS V14.01,2013-06-02 10:40:00,
2013-06-02 06:45:00,62.6,61.7,29.85,SSW,206,2.0,14.0,97,0.00,,,0.01,VWS V14.01,2013-06-02 10:45:00,
2013-06-02 06:50:00,62.6,61.7,29.85,South,190,5.0,14.0,97,0.00,,,0.01,VWS V14.01,2013-06-02 10:50:00,
2013-06-02 06:55:00,62.6,61.7,29.85,South,175,5.0,14.0,97,0.00,,,0.01,VWS V14.01,2013-06-02 10:55:00,
2013-06-02 07:00:00,62.6,61.7,29.85,South,173,5.0,14.0,97,0.00,,,0.01,VWS V14.01,2013-06-02 11:00:00,
2013-06-02 07:05:00,62.6,61.7,29.85,SW,224,6.0,7.0,97,0.00,,,0.01,VWS V14.01,2013-06-02 11:05:00,
2013-06-02 07:10:00,62.6,61.7,29.85,SSE,163,2.0,11.0,97,0.00,,,0.01,VWS V14.01,2013-06-02 11:10:00,
2013-06-02 07:15:00,62.6,61.7,29.85,South,169,3.0,11.0,97,0.00,,,0.01,VWS V14.01,2013-06-02 11:15:00,
2013-06-02 07:20:00,62.6,61.7,29.85,SW,220,6.0,11.0,97,0.00,,,0.01,VWS V14.01,2013-06-02 11:20:00,
2013-06-02 07:25:00,62.5,61.6,29.85,South,190,3.0,12.0,97,0.00,,,0.01,VWS V14.01,2013-06-02 11:25:00,
2013-06-02 07:30:00,62.5,61.6,29.86,South,190,3.0,12.0,97,0.00,,,0.01,VWS V14.01,2013-06-02 11:30:00,
2013-06-02 07:35:00,62.5,61.6,29.86,SE,131,5.0,11.0,97,0.00,,,0.01,VWS V14.01,2013-06-02 11:35:00,
2013-06-02 07:40:00,62.4,61.5,29.86,SSW,198,8.0,11.0,97,0.00,,,0.01,VWS V14.01,2013-06-02 11:40:00,
2013-06-02 07:45:00,62.4,61.5,29.86,SW,217,9.0,11.0,97,0.00,,,0.01,VWS V14.01,2013-06-02 11:45:00,
2013-06-02 07:50:00,62.3,61.4,29.86,SSW,196,2.0,12.0,97,0.00,,,0.01,VWS V14.01,2013-06-02 11:50:00,
2013-06-02 07:55:00,62.4,61.5,29.85,SE,137,7.0,12.0,97,0.00,,,0.01,VWS V14.01,2013-06-02 11:55:00,
2013-06-02 08:00:00,62.3,61.4,29.85,ESE,111,4.0,13.0,97,0.00,,,0.01,VWS V14.01,2013-06-02 12:00:00,
2013-06-02 08:05:00,62.3,61.4,29.85,SW,232,8.0,10.0,97,0.00,,,0.01,VWS V14.01,2013-06-02 12:05:00,
2013-06-02 08:10:00,62.3,61.4,29.85,SSW,205,2.0,15.0,97,0.00,,,0.01,VWS V14.01,2013-06-02 12:10:00,
2013-06-02 08:15:00,62.4,61.5,29.85,SSE,152,4.0,15.0,97,0.00,,,0.01,VWS V14.01,2013-06-02 12:15:00,
2013-06-02 08:20:00,62.4,61.5,29.85,South,170,2.0,15.0,97,0.00,,,0.01,VWS V14.01,2013-06-02 12:20:00,
2013-06-02 08:25:00,62.5,61.6,29.85,WSW,253,1.0,15.0,97,0.00,,,0.01,VWS V14.01,2013-06-02 12:25:00,
2013-06-02 08:30:00,62.5,61.6,29.85,SSW,205,3.0,15.0,97,0.00,,,0.01,VWS V14.01,2013-06-02 12:30:00,
2013-06-02 08:35:00,62.5,61.6,29.85,SSW,213,3.0,12.0,97,0.00,,,0.01,VWS V14.01,2013-06-02 12:35:00,
2013-06-02 08:40:00,62.5,61.6,29.85,SSW,194,2.0,12.0,97,0.00,,,0.01,VWS V14.01,2013-06-02 12:40:00,
2013-06-02 08:45:00,62.6,61.7,29.85,SE,142,5.0,12.0,97,0.00,,,0.01,VWS V14.01,2013-06-02 12:45:00,
2013-06-02 08:50:00,62.7,62.1,29.85,SSE,148,2.0,12.0,98,0.00,,,0.01,VWS V14.01,2013-06-02 12:50:00,
2013-06-02 08:55:00,62.6,61.7,29.85,SW,215,0.0,12.0,97,0.00,,,0.01,VWS V14.01,2013-06-02 12:55:00,
2013-06-02 09:00:00,62.7,61.8,29.85,South,179,3.0,12.0,97,0.00,,,0.01,VWS V14.01,2013-06-02 13:00:00,
2013-06-02 09:05:00,62.7,61.8,29.85,SW,220,5.0,10.0,97,0.00,,,0.01,VWS V14.01,2013-06-02 13:05:00,
2013-06-02 09:10:00,62.6,61.7,29.85,SSE,161,6.0,10.0,97,0.01,,,0.02,VWS V14.01,2013-06-02 13:10:00,
2013-06-02 09:15:00,62.6,61.7,29.85,SW,229,4.0,10.0,97,0.01,,,0.02,VWS V14.01,2013-06-02 13:15:00,
2013-06-02 09:20:00,62.7,61.8,29.84,SW,217,2.0,12.0,97,0.01,,,0.02,VWS V14.01,2013-06-02 13:20:00,
2013-06-02 09:25:00,62.8,61.9,29.84,SSE,156,5.0,12.0,97,0.01,,,0.02,VWS V14.01,2013-06-02 13:25:00,
2013-06-02 09:30:00,62.7,61.8,29.84,SW,215,4.0,13.0,97,0.01,,,0.02,VWS V14.01,2013-06-02 13:30:00,
2013-06-02 09:35:00,62.8,61.9,29.84,SSE,159,3.0,8.0,97,0.01,,,0.02,VWS V14.01,2013-06-02 13:35:00,
2013-06-02 09:40:00,62.9,62.0,29.84,SSW,194,2.0,10.0,97,0.01,,,0.02,VWS V14.01,2013-06-02 13:40:00,
2013-06-02 09:45:00,63.0,62.1,29.84,SSW,199,4.0,10.0,97,0.01,,,0.02,VWS V14.01,2013-06-02 13:45:00,
2013-06-02 09:50:00,63.0,62.1,29.84,SSW,204,8.0,10.0,97,0.01,,,0.02,VWS V14.01,2013-06-02 13:50:00,
2013-06-02 09:55:00,63.1,62.2,29.84,SSW,200,5.0,11.0,97,0.01,,,0.02,VWS V14.01,2013-06-02 13:55:00,
2013-06-02 10:00:00,63.1,62.2,29.84,SE,131,8.0,13.0,97,0.01,,,0.02,VWS V14.01,2013-06-02 14:00:00,
2013-06-02 10:05:00,63.1,62.2,29.84,SE,143,2.0,10.0,97,0.01,,,0.02,VWS V14.01,2013-06-02 14:05:00,
2013-06-02 10:10:00,63.2,62.3,29.84,SSW,200,5.0,10.0,97,0.01,,,0.02,VWS V14.01,2013-06-02 14:10:00,
2013-06-02 10:15:00,63.4,62.5,29.84,South,170,1.0,10.0,97,0.01,,,0.02,VWS V14.01,2013-06-02 14:15:00,
2013-06-02 10:20:00,63.6,62.4,29.84,SE,140,2.0,10.0,96,0.01,,,0.02,VWS V14.01,2013-06-02 14:20:00,
2013-06-02 10:25:00,63.7,62.5,29.84,South,186,8.0,10.0,96,0.01,,,0.02,VWS V14.01,2013-06-02 14:25:00,
2013-06-02 10:30:00,63.8,62.6,29.84,South,173,2.0,10.0,96,0.01,,,0.02,VWS V14.01,2013-06-02 14:30:00,
2013-06-02 10:35:00,64.0,62.8,29.84,South,176,4.0,11.0,96,0.00,,,0.02,VWS V14.01,2013-06-02 14:35:00,
2013-06-02 10:40:00,64.1,62.6,29.84,South,179,5.0,11.0,95,0.00,,,0.02,VWS V14.01,2013-06-02 14:40:00,
2013-06-02 10:45:00,64.3,62.8,29.84,SSE,159,3.0,11.0,95,0.00,,,0.02,VWS V14.01,2013-06-02 14:45:00,
2013-06-02 10:50:00,64.4,62.6,29.84,West,262,4.0,11.0,94,0.00,,,0.02,VWS V14.01,2013-06-02 14:50:00,
2013-06-02 10:55:00,64.5,62.7,29.84,SSW,204,0.0,11.0,94,0.00,,,0.02,VWS V14.01,2013-06-02 14:55:00,
2013-06-02 11:00:00,64.8,63.3,29.84,SW,219,5.0,11.0,95,0.00,,,0.02,VWS V14.01,2013-06-02 15:00:00,
2013-06-02 11:05:00,64.8,63.0,29.84,SSE,149,7.0,12.0,94,0.00,,,0.02,VWS V14.01,2013-06-02 15:05:00,
2013-06-02 11:10:00,64.8,62.7,29.84,SE,128,2.0,12.0,93,0.00,,,0.02,VWS V14.01,2013-06-02 15:10:00,
2013-06-02 11:15:00,64.9,62.8,29.84,South,185,6.0,12.0,93,0.00,,,0.02,VWS V14.01,2013-06-02 15:15:00,
2013-06-02 11:20:00,65.1,63.0,29.84,SSW,192,5.0,12.0,93,0.00,,,0.02,VWS V14.01,2013-06-02 15:20:00,
2013-06-02 11:25:00,65.4,63.3,29.83,SSW,200,4.0,12.0,93,0.00,,,0.02,VWS V14.01,2013-06-02 15:25:00,
2013-06-02 11:30:00,65.5,63.1,29.84,SSE,147,3.0,13.0,92,0.00,,,0.02,VWS V14.01,2013-06-02 15:30:00,
2013-06-02 11:35:00,65.6,62.9,29.84,South,183,2.0,13.0,91,0.00,,,0.02,VWS V14.01,2013-06-02 15:35:00,
2013-06-02 11:40:00,65.8,63.4,29.83,WSW,238,7.0,13.0,92,0.00,,,0.02,VWS V14.01,2013-06-02 15:40:00,
2013-06-02 11:45:00,65.9,63.2,29.83,SSE,167,5.0,13.0,91,0.00,,,0.02,VWS V14.01,2013-06-02 15:45:00,
2013-06-02 11:50:00,66.3,63.3,29.84,SSE,159,4.0,13.0,90,0.00,,,0.02,VWS V14.01,2013-06-02 15:50:00,
2013-06-02 11:55:00,66.6,63.6,29.83,SE,130,6.0,13.0,90,0.00,,,0.02,VWS V14.01,2013-06-02 15:55:00,
2013-06-02 12:00:00,66.7,63.4,29.83,SE,128,10.0,14.0,89,0.00,,,0.02,VWS V14.01,2013-06-02 16:00:00,
2013-06-02 12:05:00,66.9,63.6,29.83,SSE,150,7.0,17.0,89,0.00,,,0.02,VWS V14.01,2013-06-02 16:05:00,
2013-06-02 12:10:00,67.2,63.5,29.83,SSW,192,4.0,17.0,88,0.00,,,0.02,VWS V14.01,2013-06-02 16:10:00,
2013-06-02 12:15:00,67.1,63.4,29.84,SE,136,6.0,17.0,88,0.00,,,0.02,VWS V14.01,2013-06-02 16:15:00,
2013-06-02 12:20:00,67.2,63.8,29.84,South,182,2.0,17.0,89,0.00,,,0.02,VWS V14.01,2013-06-02 16:20:00,
2013-06-02 12:25:00,67.6,63.9,29.84,SE,143,1.0,17.0,88,0.00,,,0.02,VWS V14.01,2013-06-02 16:25:00,
2013-06-02 12:30:00,67.9,64.2,29.84,SE,128,8.0,17.0,88,0.00,,,0.02,VWS V14.01,2013-06-02 16:30:00,
2013-06-02 12:35:00,67.9,63.9,29.83,SSW,196,3.0,10.0,87,0.00,,,0.02,VWS V14.01,2013-06-02 16:35:00,
2013-06-02 12:40:00,68.0,64.0,29.84,ESE,115,7.0,10.0,87,0.00,,,0.02,VWS V14.01,2013-06-02 16:40:00,
2013-06-02 12:45:00,68.1,64.1,29.83,South,180,6.0,12.0,87,0.00,,,0.02,VWS V14.01,2013-06-02 16:45:00,
2013-06-02 12:50:00,68.1,64.1,29.83,SW,223,4.0,13.0,87,0.00,,,0.02,VWS V14.01,2013-06-02 16:50:00,
2013-06-02 12:55:00,68.0,63.7,29.83,ESE,115,4.0,13.0,86,0.00,,,0.02,VWS V14.01,2013-06-02 16:55:00,
2013-06-02 13:00:00,67.7,63.7,29.83,East,96,8.0,13.0,87,0.00,,,0.02,VWS V14.01,2013-06-02 17:00:00,
2013-06-02 13:05:00,67.9,63.9,29.83,SSE,159,4.0,10.0,87,0.00,,,0.02,VWS V14.01,2013-06-02 17:05:00,
2013-06-02 13:10:00,68.2,64.2,29.83,SSE,155,4.0,10.0,87,0.00,,,0.02,VWS V14.01,2013-06-02 17:10:00,
2013-06-02 13:15:00,68.3,64.0,29.83,SE,136,7.0,10.0,86,0.00,,,0.02,VWS V14.01,2013-06-02 17:15:00,
2013-06-02 13:20:00,67.9,63.6,29.83,SSW,200,7.0,12.0,86,0.00,,,0.02,VWS V14.01,2013-06-02 17:20:00,
2013-06-02 13:25:00,67.9,63.9,29.83,SSW,202,3.0,13.0,87,0.00,,,0.02,VWS V14.01,2013-06-02 17:25:00,
2013-06-02 13:30:00,68.1,64.1,29.83,SSW,202,3.0,13.0,87,0.00,,,0.02,VWS V14.01,2013-06-02 17:30:00,
2013-06-02 13:35:00,67.9,63.2,29.83,ESE,115,12.0,12.0,85,0.00,,,0.02,VWS V14.01,2013-06-02 17:35:00,
2013-06-02 13:40:00,67.9,63.9,29.83,South,178,3.0,13.0,87,0.00,,,0.02,VWS V14.01,2013-06-02 17:40:00,
2013-06-02 13:45:00,67.9,63.9,29.83,SE,143,2.0,17.0,87,0.00,,,0.02,VWS V14.01,2013-06-02 17:45:00,
2013-06-02 13:50:00,68.1,63.8,29.83,South,186,3.0,17.0,86,0.00,,,0.02,VWS V14.01,2013-06-02 17:50:00,
2013-06-02 13:55:00,68.0,63.7,29.83,SE,134,6.0,17.0,86,0.00,,,0.02,VWS V14.01,2013-06-02 17:55:00,
2013-06-02 14:00:00,68.0,63.7,29.83,SW,219,5.0,17.0,86,0.00,,,0.02,VWS V14.01,2013-06-02 18:00:00,
2013-06-02 14:05:00,67.8,63.5,29.82,SW,228,4.0,11.0,86,0.00,,,0.02,VWS V14.01,2013-06-02 18:05:00,
2013-06-02 14:10:00,67.9,63.6,29.82,South,172,7.0,11.0,86,0.00,,,0.02,VWS V14.01,2013-06-02 18:10:00,
2013-06-02 14:15:00,68.1,63.8,29.82,SE,132,10.0,11.0,86,0.00,,,0.02,VWS V14.01,2013-06-02 18:15:00,
2013-06-02 14:20:00,68.2,63.5,29.82,South,171,4.0,11.0,85,0.00,,,0.02,VWS V14.01,2013-06-02 18:20:00,
2013-06-02 14:25:00,68.2,63.9,29.82,SE,143,7.0,12.0,86,0.00,,,0.02,VWS V14.01,2013-06-02 18:25:00,
2013-06-02 14:30:00,68.1,63.4,29.82,South,172,12.0,12.0,85,0.00,,,0.02,VWS V14.01,2013-06-02 18:30:00,
2013-06-02 14:35:00,68.0,64.0,29.82,SE,139,7.0,13.0,87,0.00,,,0.02,VWS V14.01,2013-06-02 18:35:00,
2013-06-02 14:40:00,68.1,63.8,29.81,SSW,195,7.0,13.0,86,0.00,,,0.02,VWS V14.01,2013-06-02 18:40:00,
2013-06-02 14:45:00,67.9,63.6,29.81,SW,221,2.0,13.0,86,0.00,,,0.02,VWS V14.01,2013-06-02 18:45:00,
2013-06-02 14:50:00,67.7,63.0,29.81,South,191,5.0,13.0,85,0.00,,,0.02,VWS V14.01,2013-06-02 18:50:00,
2013-06-02 14:55:00,67.4,63.1,29.80,South,175,3.0,13.0,86,0.00,,,0.02,VWS V14.01,2013-06-02 18:55:00,
2013-06-02 15:00:00,67.7,63.4,29.80,SSW,207,5.0,13.0,86,0.00,,,0.02,VWS V14.01,2013-06-02 19:00:00,
2013-06-02 15:05:00,67.7,63.4,29.80,SE,140,4.0,9.0,86,0.00,,,0.02,VWS V14.01,2013-06-02 19:05:00,
2013-06-02 15:10:00,67.9,63.6,29.80,South,186,4.0,10.0,86,0.00,,,0.02,VWS V14.01,2013-06-02 19:10:00,
2013-06-02 15:15:00,68.0,63.7,29.81,South,184,7.0,10.0,86,0.00,,,0.02,VWS V14.01,2013-06-02 19:15:00,
2013-06-02 15:20:00,67.4,62.7,29.80,SSW,201,1.0,13.0,85,0.00,,,0.02,VWS V14.01,2013-06-02 19:20:00,
2013-06-02 15:25:00,67.3,63.0,29.80,SSE,163,3.0,13.0,86,0.00,,,0.02,VWS V14.01,2013-06-02 19:25:00,
2013-06-02 15:30:00,67.3,63.3,29.80,SSW,195,3.0,13.0,87,0.00,,,0.02,VWS V14.01,2013-06-02 19:30:00,
2013-06-02 15:35:00,67.3,63.3,29.80,SE,144,4.0,10.0,87,0.00,,,0.02,VWS V14.01,2013-06-02 19:35:00,
2013-06-02 15:40:00,67.0,62.7,29.80,SW,229,8.0,12.0,86,0.00,,,0.02,VWS V14.01,2013-06-02 19:40:00,
2013-06-02 15:45:00,66.7,62.7,29.80,SE,125,8.0,12.0,87,0.00,,,0.02,VWS V14.01,2013-06-02 19:45:00,
2013-06-02 15:51:00,66.7,63.0,29.80,SE,130,8.0,12.0,88,0.00,,,0.02,VWS V14.01,2013-06-02 19:51:00,
2013-06-02 15:56:00,66.9,63.2,29.79,SSW,211,3.0,12.0,88,0.00,,,0.02,VWS V14.01,2013-06-02 19:56:00,
2013-06-02 16:00:00,66.7,63.0,29.79,SE,146,8.0,13.0,88,0.00,,,0.02,VWS V14.01,2013-06-02 20:00:00,
2013-06-02 16:01:00,66.7,62.7,29.79,SE,124,6.0,13.0,87,0.00,,,0.02,VWS V14.01,2013-06-02 20:01:00,
2013-06-02 16:06:00,66.7,63.0,29.79,SSW,205,1.0,8.0,88,0.00,,,0.02,VWS V14.01,2013-06-02 20:06:00,
2013-06-02 16:11:00,66.7,63.0,29.79,SSW,196,4.0,13.0,88,0.00,,,0.02,VWS V14.01,2013-06-02 20:11:00,
2013-06-02 16:16:00,67.0,63.3,29.79,SSW,208,4.0,13.0,88,0.00,,,0.02,VWS V14.01,2013-06-02 20:16:00,
2013-06-02 16:21:00,67.5,63.8,29.79,SSE,161,3.0,13.0,88,0.00,,,0.02,VWS V14.01,2013-06-02 20:21:00,
2013-06-02 16:26:00,67.5,63.2,29.79,SW,229,16.0,16.0,86,0.00,,,0.02,VWS V14.01,2013-06-02 20:26:00,
2013-06-02 16:30:00,67.2,63.2,29.79,WSW,239,2.0,16.0,87,0.00,,,0.02,VWS V14.01,2013-06-02 20:30:00,
2013-06-02 16:31:00,67.2,63.2,29.79,SSW,206,8.0,16.0,87,0.00,,,0.02,VWS V14.01,2013-06-02 20:31:00,
2013-06-02 16:36:00,67.3,63.3,29.79,ESE,121,4.0,8.0,87,0.00,,,0.02,VWS V14.01,2013-06-02 20:36:00,
2013-06-02 16:41:00,67.0,63.0,29.79,South,176,6.0,15.0,87,0.00,,,0.02,VWS V14.01,2013-06-02 20:41:00,
2013-06-02 16:45:00,66.8,63.1,29.79,South,171,4.0,15.0,88,0.00,,,0.02,VWS V14.01,2013-06-02 20:45:00,
2013-06-02 16:51:00,66.8,62.8,29.78,SE,134,4.0,15.0,87,0.00,,,0.02,VWS V14.01,2013-06-02 20:51:00,
2013-06-02 16:56:00,66.8,62.8,29.78,South,188,5.0,15.0,87,0.00,,,0.02,VWS V14.01,2013-06-02 20:56:00,
2013-06-02 17:00:00,66.3,62.7,29.78,South,172,5.0,15.0,88,0.00,,,0.02,VWS V14.01,2013-06-02 21:00:00,
2013-06-02 17:01:00,66.4,62.7,29.78,West,265,4.0,15.0,88,0.00,,,0.02,VWS V14.01,2013-06-02 21:01:00,
2013-06-02 17:06:00,66.2,62.5,29.78,SSE,161,10.0,14.0,88,0.00,,,0.02,VWS V14.01,2013-06-02 21:06:00,
2013-06-02 17:11:00,66.1,62.8,29.78,SSW,212,6.0,14.0,89,0.00,,,0.02,VWS V14.01,2013-06-02 21:11:00,
2013-06-02 17:16:00,66.1,62.8,29.78,SSE,163,3.0,14.0,89,0.00,,,0.02,VWS V14.01,2013-06-02 21:16:00,
2013-06-02 17:21:00,65.8,62.5,29.78,SE,130,2.0,14.0,89,0.00,,,0.02,VWS V14.01,2013-06-02 21:21:00,
2013-06-02 17:26:00,65.6,62.6,29.78,SSW,193,6.0,14.0,90,0.00,,,0.02,VWS V14.01,2013-06-02 21:26:00,
2013-06-02 17:30:00,65.6,62.6,29.78,South,173,6.0,14.0,90,0.00,,,0.02,VWS V14.01,2013-06-02 21:30:00,
2013-06-02 17:31:00,65.6,62.6,29.78,SSW,200,4.0,14.0,90,0.00,,,0.02,VWS V14.01,2013-06-02 21:31:00,
2013-06-02 17:36:00,65.4,62.4,29.79,SE,137,5.0,11.0,90,0.01,,,0.03,VWS V14.01,2013-06-02 21:36:00,
2013-06-02 17:41:00,65.1,62.4,29.78,ESE,103,5.0,13.0,91,0.01,,,0.03,VWS V14.01,2013-06-02 21:41:00,
2013-06-02 17:46:00,65.0,62.3,29.78,SSE,150,8.0,14.0,91,0.01,,,0.03,VWS V14.01,2013-06-02 21:46:00,
2013-06-02 17:51:00,65.1,62.4,29.78,SW,221,7.0,14.0,91,0.01,,,0.03,VWS V14.01,2013-06-02 21:51:00,
2013-06-02 17:56:00,65.1,62.4,29.78,South,184,9.0,14.0,91,0.01,,,0.03,VWS V14.01,2013-06-02 21:56:00,
2013-06-02 18:00:00,65.0,62.6,29.78,SSW,213,9.0,14.0,92,0.01,,,0.03,VWS V14.01,2013-06-02 22:00:00,
2013-06-02 18:01:00,65.1,62.4,29.79,SSW,207,0.0,14.0,91,0.01,,,0.03,VWS V14.01,2013-06-02 22:01:00,
2013-06-02 18:06:00,65.0,62.6,29.78,South,184,4.0,10.0,92,0.01,,,0.03,VWS V14.01,2013-06-02 22:06:00,
2013-06-02 18:10:00,64.9,62.2,29.78,SE,146,6.0,10.0,91,0.01,,,0.03,VWS V14.01,2013-06-02 22:10:00,
2013-06-02 18:15:00,64.6,62.2,29.79,SW,219,6.0,10.0,92,0.01,,,0.03,VWS V14.01,2013-06-02 22:15:00,
2013-06-02 18:20:00,64.5,62.1,29.79,South,173,3.0,11.0,92,0.01,,,0.03,VWS V14.01,2013-06-02 22:20:00,
2013-06-02 18:25:00,64.4,62.0,29.79,South,182,2.0,11.0,92,0.01,,,0.03,VWS V14.01,2013-06-02 22:25:00,
2013-06-02 18:30:00,64.5,62.1,29.79,ESE,106,3.0,11.0,92,0.01,,,0.03,VWS V14.01,2013-06-02 22:30:00,
2013-06-02 18:35:00,64.5,62.1,29.79,SSW,202,4.0,9.0,92,0.01,,,0.03,VWS V14.01,2013-06-02 22:35:00,
2013-06-02 18:40:00,64.4,62.0,29.78,SE,129,3.0,11.0,92,0.01,,,0.03,VWS V14.01,2013-06-02 22:40:00,
2013-06-02 18:45:00,64.4,62.3,29.78,SSE,157,8.0,11.0,93,0.01,,,0.03,VWS V14.01,2013-06-02 22:45:00,
2013-06-02 18:50:00,64.1,62.0,29.79,SE,142,5.0,11.0,93,0.01,,,0.03,VWS V14.01,2013-06-02 22:50:00,
2013-06-02 18:55:00,64.1,62.0,29.78,South,169,5.0,11.0,93,0.01,,,0.03,VWS V14.01,2013-06-02 22:55:00,
2013-06-02 19:00:00,64.0,61.9,29.79,ESE,122,8.0,11.0,93,0.01,,,0.03,VWS V14.01,2013-06-02 23:00:00,
2013-06-02 19:05:00,63.9,62.1,29.79,SW,214,2.0,7.0,94,0.00,,,0.03,VWS V14.01,2013-06-02 23:05:00,
2013-06-02 19:10:00,63.8,62.0,29.79,SW,218,6.0,8.0,94,0.00,,,0.03,VWS V14.01,2013-06-02 23:10:00,
2013-06-02 19:15:00,63.8,62.0,29.79,South,175,5.0,12.0,94,0.00,,,0.03,VWS V14.01,2013-06-02 23:15:00,
2013-06-02 19:20:00,63.6,61.8,29.79,SSW,193,2.0,12.0,94,0.00,,,0.03,VWS V14.01,2013-06-02 23:20:00,
2013-06-02 19:25:00,63.6,61.8,29.80,SSW,207,7.0,12.0,94,0.00,,,0.03,VWS V14.01,2013-06-02 23:25:00,
2013-06-02 19:30:00,63.5,61.8,29.80,South,182,2.0,12.0,94,0.00,,,0.03,VWS V14.01,2013-06-02 23:30:00,
2013-06-02 19:35:00,63.5,61.8,29.80,South,170,2.0,12.0,94,0.00,,,0.03,VWS V14.01,2013-06-02 23:35:00,
2013-06-02 19:40:00,63.4,61.7,29.79,ESE,123,5.0,12.0,94,0.00,,,0.03,VWS V14.01,2013-06-02 23:40:00,
2013-06-02 19:45:00,63.4,61.7,29.79,SW,227,5.0,12.0,94,0.00,,,0.03,VWS V14.01,2013-06-02 23:45:00,
2013-06-02 19:50:00,63.4,61.7,29.79,SSW,194,4.0,12.0,94,0.00,,,0.03,VWS V14.01,2013-06-02 23:50:00,
2013-06-02 19:55:00,63.4,62.0,29.79,SSW,193,2.0,12.0,95,0.00,,,0.03,VWS V14.01,2013-06-02 23:55:00,
2013-06-02 20:00:00,63.4,62.0,29.80,SSE,161,2.0,12.0,95,0.00,,,0.03,VWS V14.01,2013-06-03 00:00:00,
2013-06-02 20:05:00,63.4,62.0,29.80,ESE,120,5.0,8.0,95,0.00,,,0.03,VWS V14.01,2013-06-03 00:05:00,
2013-06-02 20:10:00,63.4,62.0,29.80,South,183,4.0,8.0,95,0.00,,,0.03,VWS V14.01,2013-06-03 00:10:00,
2013-06-02 20:15:00,63.4,62.0,29.80,SE,130,2.0,10.0,95,0.00,,,0.03,VWS V14.01,2013-06-03 00:15:00,
2013-06-02 20:20:00,63.4,62.0,29.80,SSE,168,2.0,10.0,95,0.00,,,0.03,VWS V14.01,2013-06-03 00:20:00,
2013-06-02 20:25:00,63.4,62.0,29.80,SE,140,5.0,10.0,95,0.00,,,0.03,VWS V14.01,2013-06-03 00:25:00,
2013-06-02 20:30:00,63.5,62.0,29.80,SE,132,4.0,10.0,95,0.00,,,0.03,VWS V14.01,2013-06-03 00:30:00,
2013-06-02 20:35:00,63.6,62.2,29.80,South,189,5.0,9.0,95,0.00,,,0.03,VWS V14.01,2013-06-03 00:35:00,
2013-06-02 20:40:00,63.6,62.2,29.80,South,189,2.0,9.0,95,0.00,,,0.03,VWS V14.01,2013-06-03 00:40:00,
2013-06-02 20:45:00,63.5,62.0,29.80,SE,132,4.0,9.0,95,0.00,,,0.03,VWS V14.01,2013-06-03 00:45:00,
2013-06-02 20:50:00,63.5,62.0,29.80,South,180,3.0,9.0,95,0.00,,,0.03,VWS V14.01,2013-06-03 00:50:00,
2013-06-02 20:55:00,63.6,62.2,29.80,SE,132,2.0,9.0,95,0.00,,,0.03,VWS V14.01,2013-06-03 00:55:00,
2013-06-02 21:00:00,63.5,62.0,29.81,SSE,154,7.0,9.0,95,0.00,,,0.03,VWS V14.01,2013-06-03 01:00:00,
2013-06-02 21:05:00,63.6,62.2,29.80,SSW,194,3.0,7.0,95,0.00,,,0.03,VWS V14.01,2013-06-03 01:05:00,
2013-06-02 21:10:00,63.5,62.0,29.81,WSW,237,5.0,8.0,95,0.00,,,0.03,VWS V14.01,2013-06-03 01:10:00,
2013-06-02 21:15:00,63.6,62.2,29.81,SE,144,5.0,8.0,95,0.00,,,0.03,VWS V14.01,2013-06-03 01:15:00,
2013-06-02 21:20:00,63.6,62.2,29.80,SSW,206,1.0,10.0,95,0.00,,,0.03,VWS V14.01,2013-06-03 01:20:00,
2013-06-02 21:25:00,63.6,62.2,29.81,SSE,157,2.0,10.0,95,0.00,,,0.03,VWS V14.01,2013-06-03 01:25:00,
2013-06-02 21:30:00,63.6,62.2,29.81,South,180,2.0,10.0,95,0.00,,,0.03,VWS V14.01,2013-06-03 01:30:00,
2013-06-02 21:35:00,63.6,62.2,29.80,SW,214,9.0,9.0,95,0.00,,,0.03,VWS V14.01,2013-06-03 01:35:00,
2013-06-02 21:40:00,63.6,62.2,29.80,SSW,193,1.0,9.0,95,0.00,,,0.03,VWS V14.01,2013-06-03 01:40:00,
2013-06-02 21:45:00,63.6,62.2,29.80,SSE,161,3.0,10.0,95,0.00,,,0.03,VWS V14.01,2013-06-03 01:45:00,
2013-06-02 21:50:00,63.6,62.4,29.80,SSW,200,5.0,10.0,96,0.00,,,0.03,VWS V14.01,2013-06-03 01:50:00,
2013-06-02 21:55:00,63.5,62.0,29.80,SSW,198,3.0,10.0,95,0.00,,,0.03,VWS V14.01,2013-06-03 01:55:00,
2013-06-02 22:00:00,63.4,62.2,29.80,South,175,2.0,10.0,96,0.00,,,0.03,VWS V14.01,2013-06-03 02:00:00,
2013-06-02 22:05:00,63.3,62.1,29.80,South,190,2.0,10.0,96,0.00,,,0.03,VWS V14.01,2013-06-03 02:05:00,
2013-06-02 22:10:00,63.3,62.1,29.80,SSW,193,4.0,11.0,96,0.00,,,0.03,VWS V14.01,2013-06-03 02:10:00,
2013-06-02 22:15:00,63.3,62.1,29.80,SSE,161,2.0,11.0,96,0.00,,,0.03,VWS V14.01,2013-06-03 02:15:00,
2013-06-02 22:20:00,63.2,62.0,29.80,South,173,4.0,11.0,96,0.00,,,0.03,VWS V14.01,2013-06-03 02:20:00,
2013-06-02 22:25:00,63.2,62.0,29.80,South,175,2.0,11.0,96,0.00,,,0.03,VWS V14.01,2013-06-03 02:25:00,
2013-06-02 22:30:00,63.3,62.1,29.80,SE,128,3.0,11.0,96,0.00,,,0.03,VWS V14.01,2013-06-03 02:30:00,
2013-06-02 22:35:00,63.3,62.1,29.80,SSE,166,3.0,9.0,96,0.00,,,0.03,VWS V14.01,2013-06-03 02:35:00,
2013-06-02 22:40:00,63.3,62.1,29.80,SSE,163,4.0,9.0,96,0.00,,,0.03,VWS V14.01,2013-06-03 02:40:00,
2013-06-02 22:45:00,63.3,62.1,29.80,SSE,157,3.0,13.0,96,0.00,,,0.03,VWS V14.01,2013-06-03 02:45:00,
2013-06-02 22:50:00,63.3,62.1,29.80,East,100,3.0,13.0,96,0.00,,,0.03,VWS V14.01,2013-06-03 02:50:00,
2013-06-02 22:55:00,63.3,62.1,29.80,SE,127,5.0,13.0,96,0.00,,,0.03,VWS V14.01,2013-06-03 02:55:00,
2013-06-02 23:00:00,63.2,62.0,29.80,ESE,120,4.0,13.0,96,0.00,,,0.03,VWS V14.01,2013-06-03 03:00:00,
2013-06-02 23:05:00,63.2,62.0,29.80,SSW,194,3.0,8.0,96,0.00,,,0.03,VWS V14.01,2013-06-03 03:05:00,
2013-06-02 23:10:00,63.2,62.0,29.80,SSE,151,0.0,8.0,96,0.00,,,0.03,VWS V14.01,2013-06-03 03:10:00,
2013-06-02 23:15:00,63.2,62.0,29.80,SSW,212,1.0,8.0,96,0.00,,,0.03,VWS V14.01,2013-06-03 03:15:00,
2013-06-02 23:20:00,63.2,62.0,29.80,SE,133,3.0,11.0,96,0.00,,,0.03,VWS V14.01,2013-06-03 03:20:00,
2013-06-02 23:25:00,63.1,61.9,29.80,South,170,1.0,11.0,96,0.00,,,0.03,VWS V14.01,2013-06-03 03:25:00,
2013-06-02 23:30:00,63.1,61.9,29.80,SE,146,2.0,11.0,96,0.00,,,0.03,VWS V14.01,2013-06-03 03:30:00,
2013-06-02 23:35:00,63.1,61.9,29.80,South,180,2.0,11.0,96,0.00,,,0.03,VWS V14.01,2013-06-03 03:35:00,
2013-06-02 23:40:00,63.1,61.9,29.80,SW,216,4.0,11.0,96,0.00,,,0.03,VWS V14.01,2013-06-03 03:40:00,
2013-06-02 23:45:00,63.0,61.8,29.80,SW,219,6.0,11.0,96,0.00,,,0.03,VWS V14.01,2013-06-03 03:45:00,
2013-06-02 23:50:00,63.0,61.8,29.80,South,173,1.0,11.0,96,0.00,,,0.03,VWS V14.01,2013-06-03 03:50:00,
2013-06-02 23:55:00,63.0,61.8,29.80,South,174,2.0,11.0,96,0.00,,,0.03,VWS V14.01,2013-06-03 03:55:00,